TimeCST,TemperatureF,Dew PointF,Humidity,Sea Level PressureIn,VisibilityMPH,Wind Direction,Wind SpeedMPH,Gust SpeedMPH,PrecipitationIn,Events,Conditions,WindDirDegrees,DateUTC
12:35 AM,42.8,30.2,61,29.77,10.0,North,-9999.0,-,N/A,,Clear,0,2012-12-15 06:35:00
12:55 AM,41.0,30.2,65,29.77,10.0,North,-9999.0,-,N/A,,Clear,0,2012-12-15 06:55:00
1:15 AM,41.0,30.2,65,29.77,10.0,North,-9999.0,-,N/A,,Clear,0,2012-12-15 07:15:00
1:35 AM,41.0,30.2,65,29.78,10.0,North,-9999.0,-,N/A,,Clear,0,2012-12-15 07:35:00
1:55 AM,39.2,30.2,70,29.78,10.0,North,-9999.0,-,N/A,,Clear,0,2012-12-15 07:55:00
2:15 AM,39.2,30.2,70,29.78,10.0,North,-9999.0,-,N/A,,Clear,0,2012-12-15 08:15:00
2:35 AM,39.2,28.4,65,29.79,10.0,North,-9999.0,-,N/A,,Clear,0,2012-12-15 08:35:00
2:55 AM,37.4,28.4,70,29.78,10.0,North,-9999.0,-,N/A,,Clear,0,2012-12-15 08:55:00
3:15 AM,37.4,28.4,70,29.77,10.0,North,-9999.0,-,N/A,,Clear,0,2012-12-15 09:15:00
3:35 AM,37.4,28.4,70,29.76,10.0,North,-9999.0,-,N/A,,Clear,0,2012-12-15 09:35:00
3:55 AM,37.4,28.4,70,29.77,10.0,North,-9999.0,-,N/A,,Clear,0,2012-12-15 09:55:00
4:15 AM,37.4,28.4,70,29.78,10.0,North,-9999.0,-,N/A,,Clear,0,2012-12-15 10:15:00
4:35 AM,35.6,26.6,70,29.79,10.0,North,-9999.0,-,N/A,,Clear,0,2012-12-15 10:35:00
4:55 AM,37.4,26.6,65,29.79,10.0,North,-9999.0,-,N/A,,Clear,0,2012-12-15 10:55:00
5:15 AM,37.4,28.4,70,29.79,10.0,North,-9999.0,-,N/A,,Clear,0,2012-12-15 11:15:00
5:35 AM,37.4,28.4,70,29.79,10.0,North,-9999.0,-,N/A,,Clear,0,2012-12-15 11:35:00
5:55 AM,35.6,28.4,75,29.80,10.0,North,-9999.0,-,N/A,,Clear,0,2012-12-15 11:55:00
6:15 AM,35.6,28.4,75,29.80,10.0,North,-9999.0,-,N/A,,Clear,0,2012-12-15 12:15:00
6:35 AM,33.8,28.4,81,29.81,10.0,North,-9999.0,-,N/A,,Clear,0,2012-12-15 12:35:00
6:55 AM,33.8,28.4,81,29.82,10.0,North,-9999.0,-,N/A,,Clear,0,2012-12-15 12:55:00
7:15 AM,35.6,28.4,75,29.83,10.0,North,-9999.0,-,N/A,,Clear,0,2012-12-15 13:15:00
7:35 AM,33.8,28.4,81,29.84,10.0,North,-9999.0,-,N/A,,Clear,0,2012-12-15 13:35:00
7:55 AM,33.8,28.4,81,29.84,10.0,North,-9999.0,-,N/A,,Clear,0,2012-12-15 13:55:00
8:15 AM,35.6,28.4,75,29.84,10.0,North,-9999.0,-,N/A,,Clear,0,2012-12-15 14:15:00
8:35 AM,35.6,28.4,75,29.84,10.0,North,-9999.0,-,N/A,,Clear,0,2012-12-15 14:35:00
8:55 AM,37.4,28.4,70,29.84,10.0,North,-9999.0,-,N/A,,Clear,0,2012-12-15 14:55:00
9:15 AM,37.4,28.4,70,29.84,10.0,North,-9999.0,-,N/A,,Clear,0,2012-12-15 15:15:00
9:35 AM,39.2,28.4,65,29.84,10.0,North,-9999.0,-,N/A,,Clear,0,2012-12-15 15:35:00
9:55 AM,42.8,28.4,57,29.85,10.0,North,-9999.0,-,N/A,,Clear,0,2012-12-15 15:55:00
10:15 AM,44.6,28.4,53,29.85,10.0,North,-9999.0,-,N/A,,Clear,0,2012-12-15 16:15:00
10:35 AM,46.4,28.4,50,29.87,10.0,North,-9999.0,-,N/A,,Clear,0,2012-12-15 16:35:00
10:55 AM,50.0,28.4,43,29.86,10.0,North,-9999.0,-,N/A,,Clear,0,2012-12-15 16:55:00
11:15 AM,51.8,28.4,41,29.86,10.0,North,-9999.0,-,N/A,,Clear,0,2012-12-15 17:15:00
11:35 AM,53.6,26.6,35,29.85,10.0,North,-9999.0,-,N/A,,Clear,0,2012-12-15 17:35:00
11:55 AM,51.8,26.6,38,29.86,10.0,North,-9999.0,-,N/A,,Clear,0,2012-12-15 17:55:00
12:15 PM,53.6,26.6,35,29.84,10.0,North,-9999.0,-,N/A,,Clear,0,2012-12-15 18:15:00
12:35 PM,53.6,26.6,35,29.83,10.0,North,-9999.0,-,N/A,,Clear,0,2012-12-15 18:35:00
12:55 PM,53.6,24.8,33,29.83,10.0,North,-9999.0,-,N/A,,Clear,0,2012-12-15 18:55:00
1:15 PM,53.6,24.8,33,29.82,10.0,North,-9999.0,-,N/A,,Clear,0,2012-12-15 19:15:00
1:35 PM,55.4,24.8,31,29.80,10.0,North,-9999.0,-,N/A,,Clear,0,2012-12-15 19:35:00
1:55 PM,55.4,24.8,31,29.80,10.0,North,-9999.0,-,N/A,,Clear,0,2012-12-15 19:55:00
2:15 PM,55.4,26.6,33,29.80,10.0,North,-9999.0,-,N/A,,Clear,0,2012-12-15 20:15:00
2:35 PM,55.4,24.8,31,29.79,10.0,North,-9999.0,-,N/A,,Clear,0,2012-12-15 20:35:00
2:55 PM,55.4,24.8,31,29.78,10.0,North,-9999.0,-,N/A,,Clear,0,2012-12-15 20:55:00
3:15 PM,55.4,24.8,31,29.78,10.0,North,-9999.0,-,N/A,,Clear,0,2012-12-15 21:15:00
3:35 PM,55.4,23.0,29,29.79,10.0,North,-9999.0,-,N/A,,Clear,0,2012-12-15 21:35:00
3:55 PM,55.4,24.8,31,29.79,10.0,North,-9999.0,-,N/A,,Clear,0,2012-12-15 21:55:00
4:15 PM,53.6,24.8,33,29.79,10.0,North,-9999.0,-,N/A,,Clear,0,2012-12-15 22:15:00
4:35 PM,53.6,24.8,33,29.79,10.0,North,-9999.0,-,N/A,,Clear,0,2012-12-15 22:35:00
4:55 PM,53.6,23.0,30,29.80,10.0,North,-9999.0,-,N/A,,Clear,0,2012-12-15 22:55:00
5:15 PM,51.8,23.0,33,29.81,10.0,North,-9999.0,-,N/A,,Clear,0,2012-12-15 23:15:00
5:35 PM,51.8,23.0,33,29.81,10.0,North,-9999.0,-,N/A,,Clear,0,2012-12-15 23:35:00
5:55 PM,50.0,26.6,40,29.81,10.0,North,-9999.0,-,N/A,,Clear,0,2012-12-15 23:55:00
6:15 PM,48.2,26.6,43,29.81,10.0,North,-9999.0,-,N/A,,Clear,0,2012-12-16 00:15:00
6:35 PM,48.2,26.6,43,29.82,10.0,North,-9999.0,-,N/A,,Clear,0,2012-12-16 00:35:00
6:55 PM,46.4,26.6,46,29.82,10.0,North,-9999.0,-,N/A,,Clear,0,2012-12-16 00:55:00
7:15 PM,46.4,26.6,46,29.83,10.0,North,-9999.0,-,N/A,,Clear,0,2012-12-16 01:15:00
7:35 PM,46.4,26.6,46,29.84,10.0,North,-9999.0,-,N/A,,Clear,0,2012-12-16 01:35:00
7:55 PM,46.4,26.6,46,29.83,10.0,North,-9999.0,-,N/A,,Clear,0,2012-12-16 01:55:00
8:15 PM,46.4,26.6,46,29.82,10.0,North,-9999.0,-,N/A,,Clear,0,2012-12-16 02:15:00
8:35 PM,46.4,26.6,46,29.82,10.0,North,-9999.0,-,N/A,,Clear,0,2012-12-16 02:35:00
8:55 PM,46.4,26.6,46,29.81,10.0,North,-9999.0,-,N/A,,Clear,0,2012-12-16 02:55:00
9:15 PM,44.6,26.6,49,29.83,10.0,North,-9999.0,-,N/A,,Clear,0,2012-12-16 03:15:00
9:35 PM,41.0,26.6,57,29.82,10.0,North,-9999.0,-,N/A,,Clear,0,2012-12-16 03:35:00
9:55 PM,37.4,26.6,65,29.82,10.0,North,-9999.0,-,N/A,,Clear,0,2012-12-16 03:55:00
10:15 PM,39.2,26.6,61,29.83,10.0,North,-9999.0,-,N/A,,Clear,0,2012-12-16 04:15:00
10:35 PM,37.4,26.6,65,29.82,10.0,North,-9999.0,-,N/A,,Clear,0,2012-12-16 04:35:00
10:55 PM,39.2,26.6,61,29.82,10.0,North,-9999.0,-,N/A,,Clear,0,2012-12-16 04:55:00
11:15 PM,37.4,26.6,65,29.82,10.0,North,-9999.0,-,N/A,,Clear,0,2012-12-16 05:15:00
11:35 PM,35.6,26.6,70,29.82,10.0,North,-9999.0,-,N/A,,Clear,0,2012-12-16 05:35:00
11:55 PM,35.6,26.6,70,29.82,10.0,North,-9999.0,-,N/A,,Clear,0,2012-12-16 05:55:00